Regional Weather Roundup
Issued by NWS Charleston, WV

Home | Current Version | Previous Version | Graphics & Text | Print | Product List | Glossary On
Versions: 1 2 3 4 5 6 7 8 9 10 11 12 13 14 15 16 17 18 19 20 21 22 23 24 25 26 27 28 29 30 31 32 33 34 35 36 37 38 39 40 41 42 43 44 45 46 47 48 49 50
375
ASUS41 KRLX 160010
RWRRLX
West Virginia Regional Weather Roundup
National Weather Service Charleston WV
700 PM EST FRI DEC 15 2017

Note: "fair" indicates few or no clouds below 12,000 feet with no
significant weather and/or obstructions to visibility.

WVZ003-160100-
Northern Panhandle of West Virginia

CITY           SKY/WX    TMP DP  RH WIND       PRES   REMARKS
WHEELING       LGT SNOW  26  18  71 W13G22    29.94R
$$

WVZ009-160100-
Northwest West Virginia

CITY           SKY/WX    TMP DP  RH WIND       PRES   REMARKS
PARKERSBURG    CLOUDY    32  17  54 SW10G20   30.04R
$$

WVZ006-160100-
Western West Virginia

CITY           SKY/WX    TMP DP  RH WIND       PRES   REMARKS
HUNTINGTON     CLOUDY    33  18  53 SW10      30.08R
$$

WVZ015-160100-
West Central West Virginia

CITY           SKY/WX    TMP DP  RH WIND       PRES   REMARKS
CHARLESTON     CLOUDY    32  17  54 SW8       30.06R
$$

WVZ022-031-160100-
North Central West Virginia

CITY           SKY/WX    TMP DP  RH WIND       PRES   REMARKS
CLARKSBURG     CLOUDY    31  16  54 SW12      29.98R
MORGANTOWN     CLOUDY    29  14  53 VRB7G17   29.95R
$$

WVZ025-035-042-045-160100-
Southern West Virginia

CITY           SKY/WX    TMP DP  RH WIND       PRES   REMARKS
BECKLEY        CLOUDY    24  16  71 W8        29.99R
LOGAN          CLOUDY    28  18  64 VRB5      30.05R
BLUEFIELD      CLOUDY    23  14  68 W12G21    29.99R
LEWISBURG      CLOUDY    27  17  65 NW7       29.98R
$$

WVZ047-160100-
Northern Mountains of West Virginia

CITY           SKY/WX    TMP DP  RH WIND       PRES   REMARKS
ELKINS         FLURRIES  26  16  65 SW12G20   29.95R
$$

WVZ052-160100-
Eastern Panhandle of West Virginia

CITY           SKY/WX    TMP DP  RH WIND       PRES   REMARKS
MARTINSBURG    MOCLDY    25  19  78 CALM      29.93R
PETERSBURG     CLOUDY    32  16  51 SW16G25   29.93R
$$




USA.gov is the U.S. government's official web portal to all federal, state and local government web resources and services.